{"data":{"norad_id":64445,"epoch":"2026-09-20T23:09:45.840960Z","epoch_age_seconds":94392,"freshness":"FRESH","line1":"1 64445U 25130H   26263.96511390  .00002959  00000+0  98687-4 0  9993","line2":"2 64445  53.1562 259.8744 0001342  85.4127 274.7029 15.34395217 70629","mean_motion":15.34395217,"eccentricity":0.0001342,"inclination_deg":53.1562,"raan_deg":259.8744,"arg_perigee_deg":85.4127,"mean_anomaly_deg":274.7029,"bstar":9.8687e-5,"rev_number":7062,"period_min":93.84805062254,"perigee_km":461.79941365997,"apogee_km":463.63549899604,"semimajor_km":6840.854456328,"source":"CELESTRAK","updated_at":"2026-09-21T09:00:35.353375Z"}}